Time,TemperatureF,DewpointF,PressureIn,WindDirection,WindDirectionDegrees,WindSpeedMPH,WindSpeedGustMPH,Humidity,HourlyPrecipIn,Conditions,Clouds,dailyrainin,SoftwareType,DateUTC
2013-06-29 00:00:00,83.5,65.6,29.83,NE,49,0.0,0.0,55,0.00,,,0.00,Wunderground v.1.15,2013-06-29 05:00:00,
2013-06-29 00:05:00,83.3,66.0,29.82,NE,49,0.0,0.0,56,0.00,,,0.00,Wunderground v.1.15,2013-06-29 05:05:00,
2013-06-29 00:10:00,83.1,66.3,29.82,NE,49,0.0,0.0,57,0.00,,,0.00,Wunderground v.1.15,2013-06-29 05:10:00,
2013-06-29 00:15:00,82.9,66.6,29.82,NNW,346,0.0,0.0,58,0.00,,,0.00,Wunderground v.1.15,2013-06-29 05:15:00,
2013-06-29 00:20:00,82.7,66.4,29.83,NNW,346,0.0,0.0,58,0.00,,,0.00,Wunderground v.1.15,2013-06-29 05:20:00,
2013-06-29 00:25:00,82.5,66.2,29.82,NNW,346,0.0,0.0,58,0.00,,,0.00,Wunderground v.1.15,2013-06-29 05:25:00,
2013-06-29 00:30:00,82.4,66.6,29.82,NNW,346,0.0,0.0,59,0.00,,,0.00,Wunderground v.1.15,2013-06-29 05:30:00,
2013-06-29 00:40:00,82.3,66.5,29.82,NNW,333,0.0,0.0,59,0.00,,,0.00,Wunderground v.1.15,2013-06-29 05:40:00,
2013-06-29 00:45:00,82.2,66.4,29.82,NNW,333,0.0,0.0,59,0.00,,,0.00,Wunderground v.1.15,2013-06-29 05:45:00,
2013-06-29 00:55:00,82.0,66.3,29.82,NNW,333,0.0,0.0,59,0.00,,,0.00,Wunderground v.1.15,2013-06-29 05:55:00,
2013-06-29 01:05:00,81.9,66.6,29.82,NNW,333,0.0,0.0,60,0.00,,,0.00,Wunderground v.1.15,2013-06-29 06:05:00,
2013-06-29 01:10:00,81.8,66.1,29.82,NNW,333,0.0,0.0,59,0.00,,,0.00,Wunderground v.1.15,2013-06-29 06:10:00,
2013-06-29 01:15:00,81.8,66.6,29.82,NNW,333,0.0,0.0,60,0.00,,,0.00,Wunderground v.1.15,2013-06-29 06:15:00,
2013-06-29 01:20:00,81.8,66.6,29.82,NNW,333,0.0,0.0,60,0.00,,,0.00,Wunderground v.1.15,2013-06-29 06:20:00,
2013-06-29 01:25:00,81.8,66.6,29.82,NNW,333,0.0,0.0,60,0.00,,,0.00,Wunderground v.1.15,2013-06-29 06:25:00,
2013-06-29 01:30:00,81.8,66.1,29.82,NNW,333,0.0,0.0,59,0.00,,,0.00,Wunderground v.1.15,2013-06-29 06:30:00,
2013-06-29 01:35:00,81.9,66.2,29.83,NNW,333,0.0,1.0,59,0.00,,,0.00,Wunderground v.1.15,2013-06-29 06:35:00,
2013-06-29 01:40:00,82.2,66.9,29.83,NNW,333,0.0,0.0,60,0.00,,,0.00,Wunderground v.1.15,2013-06-29 06:40:00,
2013-06-29 02:00:00,81.7,66.9,29.83,NNW,333,1.0,1.0,61,0.00,,,0.00,Wunderground v.1.15,2013-06-29 07:00:00,
2013-06-29 02:05:00,81.5,66.8,29.83,NNW,333,0.0,2.0,61,0.00,,,0.00,Wunderground v.1.15,2013-06-29 07:05:00,
2013-06-29 02:15:00,80.9,66.7,29.83,NNW,333,0.0,1.0,62,0.00,,,0.00,Wunderground v.1.15,2013-06-29 07:15:00,
2013-06-29 02:20:00,80.7,66.9,29.83,NNW,333,0.0,2.0,63,0.00,,,0.00,Wunderground v.1.15,2013-06-29 07:20:00,
2013-06-29 02:25:00,80.6,66.8,29.83,NNW,333,1.0,2.0,63,0.00,,,0.00,Wunderground v.1.15,2013-06-29 07:25:00,
2013-06-29 02:30:00,80.6,66.8,29.83,NNW,333,1.0,1.0,63,0.00,,,0.00,Wunderground v.1.15,2013-06-29 07:30:00,
2013-06-29 02:35:00,80.6,66.8,29.84,NNW,333,1.0,1.0,63,0.00,,,0.00,Wunderground v.1.15,2013-06-29 07:35:00,
2013-06-29 02:40:00,80.6,66.8,29.84,NNW,333,1.0,1.0,63,0.00,,,0.00,Wunderground v.1.15,2013-06-29 07:40:00,
2013-06-29 02:45:00,80.6,66.8,29.84,NNW,333,0.0,1.0,63,0.00,,,0.00,Wunderground v.1.15,2013-06-29 07:45:00,
2013-06-29 02:55:00,80.5,66.7,29.84,NNW,333,1.0,1.0,63,0.00,,,0.00,Wunderground v.1.15,2013-06-29 07:55:00,
2013-06-29 03:05:00,79.7,66.9,29.85,NNE,22,4.0,9.0,65,0.00,,,0.00,Wunderground v.1.15,2013-06-29 08:05:00,
2013-06-29 03:15:00,79.2,66.9,29.85,NNE,23,5.0,6.0,66,0.00,,,0.00,Wunderground v.1.15,2013-06-29 08:15:00,
2013-06-29 03:20:00,79.3,67.0,29.86,North,360,4.0,6.0,66,0.00,,,0.00,Wunderground v.1.15,2013-06-29 08:20:00,
2013-06-29 03:25:00,79.1,66.8,29.86,North,355,4.0,6.0,66,0.00,,,0.00,Wunderground v.1.15,2013-06-29 08:25:00,
2013-06-29 03:35:00,79.2,66.9,29.86,North,355,5.0,5.0,66,0.00,,,0.00,Wunderground v.1.15,2013-06-29 08:35:00,
2013-06-29 03:40:00,79.2,66.4,29.86,NNE,28,4.0,4.0,65,0.00,,,0.00,Wunderground v.1.15,2013-06-29 08:40:00,
2013-06-29 03:45:00,79.4,66.6,29.86,NNE,32,4.0,4.0,65,0.00,,,0.00,Wunderground v.1.15,2013-06-29 08:45:00,
2013-06-29 03:55:00,79.7,66.4,29.86,NE,46,4.0,4.0,64,0.00,,,0.00,Wunderground v.1.15,2013-06-29 08:55:00,
2013-06-29 04:00:00,79.8,66.1,29.86,NE,38,5.0,5.0,63,0.00,,,0.00,Wunderground v.1.15,2013-06-29 09:00:00,
2013-06-29 04:05:00,79.8,66.1,29.86,NE,42,5.0,5.0,63,0.00,,,0.00,Wunderground v.1.15,2013-06-29 09:05:00,
2013-06-29 04:10:00,79.6,65.9,29.86,North,11,5.0,6.0,63,0.00,,,0.00,Wunderground v.1.15,2013-06-29 09:10:00,
2013-06-29 04:15:00,79.6,65.9,29.86,NE,34,5.0,6.0,63,0.00,,,0.00,Wunderground v.1.15,2013-06-29 09:15:00,
2013-06-29 04:20:00,79.6,65.9,29.86,NE,39,5.0,5.0,63,0.00,,,0.00,Wunderground v.1.15,2013-06-29 09:20:00,
2013-06-29 04:30:00,79.5,66.3,29.86,NE,42,5.0,7.0,64,0.00,,,0.00,Wunderground v.1.15,2013-06-29 09:30:00,
2013-06-29 04:35:00,79.3,66.1,29.87,NNE,16,5.0,7.0,64,0.00,,,0.00,Wunderground v.1.15,2013-06-29 09:35:00,
2013-06-29 04:40:00,79.2,66.0,29.87,NNE,27,4.0,4.0,64,0.00,,,0.00,Wunderground v.1.15,2013-06-29 09:40:00,
2013-06-29 04:50:00,79.1,65.9,29.87,NE,36,4.0,5.0,64,0.00,,,0.00,Wunderground v.1.15,2013-06-29 09:50:00,
2013-06-29 04:55:00,78.9,65.7,29.87,NE,40,4.0,5.0,64,0.00,,,0.00,Wunderground v.1.15,2013-06-29 09:55:00,
2013-06-29 05:05:00,78.7,65.9,29.87,NNE,19,3.0,5.0,65,0.00,,,0.00,Wunderground v.1.15,2013-06-29 10:05:00,
2013-06-29 05:10:00,78.5,65.8,29.87,NNE,26,4.0,4.0,65,0.00,,,0.00,Wunderground v.1.15,2013-06-29 10:10:00,
2013-06-29 05:15:00,78.5,65.3,29.87,NE,41,4.0,4.0,64,0.00,,,0.00,Wunderground v.1.15,2013-06-29 10:15:00,
2013-06-29 05:20:00,78.6,65.4,29.86,NE,38,5.0,7.0,64,0.00,,,0.00,Wunderground v.1.15,2013-06-29 10:20:00,
2013-06-29 05:25:00,78.6,65.4,29.86,NNE,30,5.0,7.0,64,0.00,,,0.00,Wunderground v.1.15,2013-06-29 10:25:00,
2013-06-29 05:35:00,78.3,65.1,29.87,NNE,28,5.0,5.0,64,0.00,,,0.00,Wunderground v.1.15,2013-06-29 10:35:00,
2013-06-29 05:40:00,78.2,65.0,29.88,NE,46,5.0,5.0,64,0.00,,,0.00,Wunderground v.1.15,2013-06-29 10:40:00,
2013-06-29 05:45:00,78.1,64.9,29.88,NE,51,4.0,5.0,64,0.00,,,0.00,Wunderground v.1.15,2013-06-29 10:45:00,
2013-06-29 05:50:00,78.0,64.8,29.87,NE,41,5.0,5.0,64,0.00,,,0.00,Wunderground v.1.15,2013-06-29 10:50:00,
2013-06-29 05:55:00,77.9,64.7,29.88,NE,40,4.0,7.0,64,0.00,,,0.00,Wunderground v.1.15,2013-06-29 10:55:00,
2013-06-29 06:05:00,77.7,64.1,29.88,NNE,32,4.0,6.0,63,0.00,,,0.00,Wunderground v.1.15,2013-06-29 11:05:00,
2013-06-29 06:10:00,77.7,64.1,29.88,NE,36,4.0,5.0,63,0.00,,,0.00,Wunderground v.1.15,2013-06-29 11:10:00,
2013-06-29 06:15:00,77.7,63.6,29.87,North,5,5.0,5.0,62,0.00,,,0.00,Wunderground v.1.15,2013-06-29 11:15:00,
2013-06-29 06:20:00,77.6,64.0,29.87,NNE,31,5.0,5.0,63,0.00,,,0.00,Wunderground v.1.15,2013-06-29 11:20:00,
2013-06-29 06:25:00,77.4,63.4,29.87,NE,41,6.0,6.0,62,0.00,,,0.00,Wunderground v.1.15,2013-06-29 11:25:00,
2013-06-29 06:35:00,77.2,63.6,29.87,NE,35,6.0,6.0,63,0.00,,,0.00,Wunderground v.1.15,2013-06-29 11:35:00,
2013-06-29 06:40:00,77.1,63.5,29.87,NE,46,6.0,6.0,63,0.00,,,0.00,Wunderground v.1.15,2013-06-29 11:40:00,
2013-06-29 06:50:00,77.2,63.6,29.87,NNE,29,6.0,6.0,63,0.00,,,0.00,Wunderground v.1.15,2013-06-29 11:50:00,
2013-06-29 06:55:00,77.2,63.6,29.87,NNE,19,5.0,6.0,63,0.00,,,0.00,Wunderground v.1.15,2013-06-29 11:55:00,
2013-06-29 07:00:00,77.2,63.2,29.87,NE,45,5.0,7.0,62,0.00,,,0.00,Wunderground v.1.15,2013-06-29 12:00:00,
2013-06-29 07:05:00,77.2,63.6,29.87,ENE,60,5.0,7.0,63,0.00,,,0.00,Wunderground v.1.15,2013-06-29 12:05:00,
2013-06-29 07:10:00,77.3,63.7,29.88,NE,36,4.0,5.0,63,0.00,,,0.00,Wunderground v.1.15,2013-06-29 12:10:00,
2013-06-29 07:15:00,77.1,63.5,29.88,NE,41,5.0,5.0,63,0.00,,,0.00,Wunderground v.1.15,2013-06-29 12:15:00,
2013-06-29 07:25:00,77.3,63.7,29.88,NNE,20,4.0,5.0,63,0.00,,,0.00,Wunderground v.1.15,2013-06-29 12:25:00,
2013-06-29 07:30:00,77.4,63.8,29.88,NE,40,5.0,5.0,63,0.00,,,0.00,Wunderground v.1.15,2013-06-29 12:30:00,
2013-06-29 07:40:00,77.9,63.8,29.88,NE,44,5.0,6.0,62,0.00,,,0.00,Wunderground v.1.15,2013-06-29 12:40:00,
2013-06-29 07:45:00,78.1,64.0,29.88,NE,49,5.0,6.0,62,0.00,,,0.00,Wunderground v.1.15,2013-06-29 12:45:00,
2013-06-29 07:50:00,78.5,63.9,29.88,NNE,31,4.0,9.0,61,0.00,,,0.00,Wunderground v.1.15,2013-06-29 12:50:00,
2013-06-29 07:55:00,78.7,64.1,29.88,NNE,27,4.0,9.0,61,0.00,,,0.00,Wunderground v.1.15,2013-06-29 12:55:00,
2013-06-29 08:05:00,78.9,64.3,29.88,NE,42,5.0,5.0,61,0.00,,,0.00,Wunderground v.1.15,2013-06-29 13:05:00,
2013-06-29 08:10:00,78.9,64.3,29.88,NE,40,5.0,5.0,61,0.00,,,0.00,Wunderground v.1.15,2013-06-29 13:10:00,
2013-06-29 08:20:00,79.6,65.0,29.90,NNE,17,5.0,5.0,61,0.00,,,0.00,Wunderground v.1.15,2013-06-29 13:20:00,
2013-06-29 08:25:00,80.0,64.9,29.90,NNE,21,4.0,5.0,60,0.00,,,0.00,Wunderground v.1.15,2013-06-29 13:25:00,
2013-06-29 08:30:00,80.4,65.2,29.90,North,360,4.0,4.0,60,0.00,,,0.00,Wunderground v.1.15,2013-06-29 13:30:00,
2013-06-29 08:40:00,81.1,64.9,29.90,NNE,28,4.0,4.0,58,0.00,,,0.00,Wunderground v.1.15,2013-06-29 13:40:00,
2013-06-29 08:45:00,81.6,64.9,29.90,NE,36,4.0,4.0,57,0.00,,,0.00,Wunderground v.1.15,2013-06-29 13:45:00,
2013-06-29 08:50:00,81.6,64.9,29.91,NNE,15,4.0,5.0,57,0.00,,,0.00,Wunderground v.1.15,2013-06-29 13:50:00,
2013-06-29 08:55:00,81.8,65.1,29.90,NNE,20,4.0,5.0,57,0.00,,,0.00,Wunderground v.1.15,2013-06-29 13:55:00,
2013-06-29 09:00:00,81.8,64.6,29.90,NNE,26,5.0,5.0,56,0.00,,,0.00,Wunderground v.1.15,2013-06-29 14:00:00,
2013-06-29 09:10:00,83.1,63.7,29.91,NE,37,3.0,3.0,52,0.00,,,0.00,Wunderground v.1.15,2013-06-29 14:10:00,
2013-06-29 09:15:00,83.1,62.0,29.91,NNE,27,5.0,6.0,49,0.00,,,0.00,Wunderground v.1.15,2013-06-29 14:15:00,
2013-06-29 09:20:00,82.5,62.5,29.90,NNE,32,6.0,6.0,51,0.00,,,0.00,Wunderground v.1.15,2013-06-29 14:20:00,
2013-06-29 09:25:00,82.5,62.5,29.89,NE,38,6.0,6.0,51,0.00,,,0.00,Wunderground v.1.15,2013-06-29 14:25:00,
2013-06-29 09:35:00,83.3,63.8,29.89,ENE,65,4.0,6.0,52,0.00,,,0.00,Wunderground v.1.15,2013-06-29 14:35:00,
2013-06-29 09:40:00,83.7,63.1,29.90,NE,47,4.0,6.0,50,0.00,,,0.00,Wunderground v.1.15,2013-06-29 14:40:00,
2013-06-29 09:50:00,83.7,62.5,29.89,NE,42,6.0,6.0,49,0.00,,,0.00,Wunderground v.1.15,2013-06-29 14:50:00,
2013-06-29 10:00:00,83.9,63.3,29.90,ENE,58,6.0,6.0,50,0.00,,,0.00,Wunderground v.1.15,2013-06-29 15:00:00,
2013-06-29 10:10:00,85.3,64.0,29.91,North,355,5.0,10.0,49,0.00,,,0.00,Wunderground v.1.15,2013-06-29 15:10:00,
2013-06-29 10:15:00,85.4,63.5,29.91,NE,53,5.0,10.0,48,0.00,,,0.00,Wunderground v.1.15,2013-06-29 15:15:00,
2013-06-29 10:25:00,85.7,62.5,29.91,NNE,13,7.0,7.0,46,0.00,,,0.00,Wunderground v.1.15,2013-06-29 15:25:00,
2013-06-29 10:30:00,85.6,63.1,29.92,NNW,333,7.0,8.0,47,0.00,,,0.00,Wunderground v.1.15,2013-06-29 15:30:00,
2013-06-29 10:40:00,86.1,62.9,29.92,NNE,17,6.0,6.0,46,0.00,,,0.00,Wunderground v.1.15,2013-06-29 15:40:00,
2013-06-29 10:45:00,86.4,61.3,29.91,North,360,5.0,8.0,43,0.00,,,0.00,Wunderground v.1.15,2013-06-29 15:45:00,
2013-06-29 10:55:00,87.0,59.8,29.90,North,355,7.0,9.0,40,0.00,,,0.00,Wunderground v.1.15,2013-06-29 15:55:00,
2013-06-29 11:00:00,86.8,60.3,29.90,NE,35,6.0,9.0,41,0.00,,,0.00,Wunderground v.1.15,2013-06-29 16:00:00,
2013-06-29 11:05:00,86.8,60.3,29.91,North,355,7.0,9.0,41,0.00,,,0.00,Wunderground v.1.15,2013-06-29 16:05:00,
2013-06-29 11:10:00,87.2,61.3,29.91,NNW,347,7.0,8.0,42,0.00,,,0.00,Wunderground v.1.15,2013-06-29 16:10:00,
2013-06-29 11:15:00,87.0,59.8,29.90,NNE,15,7.0,8.0,40,0.00,,,0.00,Wunderground v.1.15,2013-06-29 16:15:00,
2013-06-29 11:25:00,87.3,59.3,29.89,NE,44,5.0,7.0,39,0.00,,,0.00,Wunderground v.1.15,2013-06-29 16:25:00,
2013-06-29 11:30:00,87.2,59.2,29.89,NNE,32,6.0,6.0,39,0.00,,,0.00,Wunderground v.1.15,2013-06-29 16:30:00,
2013-06-29 11:40:00,87.2,59.9,29.88,North,10,6.0,6.0,40,0.00,,,0.00,Wunderground v.1.15,2013-06-29 16:40:00,
2013-06-29 11:45:00,87.3,60.0,29.88,NNE,12,6.0,6.0,40,0.00,,,0.00,Wunderground v.1.15,2013-06-29 16:45:00,
2013-06-29 11:50:00,87.0,61.1,29.88,NNE,26,6.0,6.0,42,0.00,,,0.00,Wunderground v.1.15,2013-06-29 16:50:00,
2013-06-29 11:55:00,87.1,61.2,29.89,NNE,30,5.0,7.0,42,0.00,,,0.00,Wunderground v.1.15,2013-06-29 16:55:00,
2013-06-29 12:00:00,86.8,60.3,29.88,NNE,27,5.0,8.0,41,0.00,,,0.00,Wunderground v.1.15,2013-06-29 17:00:00,
2013-06-29 12:05:00,86.7,60.9,29.88,NNE,32,5.0,8.0,42,0.00,,,0.00,Wunderground v.1.15,2013-06-29 17:05:00,
2013-06-29 12:10:00,87.1,60.5,29.88,NNE,13,5.0,6.0,41,0.00,,,0.00,Wunderground v.1.15,2013-06-29 17:10:00,
2013-06-29 12:15:00,87.4,60.1,29.89,NE,46,4.0,6.0,40,0.00,,,0.00,Wunderground v.1.15,2013-06-29 17:15:00,
2013-06-29 12:20:00,87.4,60.1,29.89,NE,38,5.0,5.0,40,0.00,,,0.00,Wunderground v.1.15,2013-06-29 17:20:00,
2013-06-29 12:25:00,87.5,60.2,29.89,ENE,63,5.0,7.0,40,0.00,,,0.00,Wunderground v.1.15,2013-06-29 17:25:00,
2013-06-29 12:30:00,87.8,59.8,29.89,North,10,5.0,5.0,39,0.00,,,0.00,Wunderground v.1.15,2013-06-29 17:30:00,
2013-06-29 12:40:00,88.0,60.7,29.89,NNE,19,5.0,5.0,40,0.00,,,0.00,Wunderground v.1.15,2013-06-29 17:40:00,
2013-06-29 12:50:00,88.8,60.7,29.89,NNE,19,4.0,4.0,39,0.00,,,0.00,Wunderground v.1.15,2013-06-29 17:50:00,
2013-06-29 12:55:00,88.8,59.9,29.89,North,360,6.0,8.0,38,0.00,,,0.00,Wunderground v.1.15,2013-06-29 17:55:00,
2013-06-29 13:00:00,89.0,60.1,29.89,NNW,339,7.0,7.0,38,0.00,,,0.00,Wunderground v.1.15,2013-06-29 18:00:00,
2013-06-29 13:10:00,89.4,59.7,29.89,NNW,331,6.0,8.0,37,0.00,,,0.00,Wunderground v.1.15,2013-06-29 18:10:00,
2013-06-29 13:15:00,89.6,59.9,29.89,North,10,6.0,8.0,37,0.00,,,0.00,Wunderground v.1.15,2013-06-29 18:15:00,
2013-06-29 13:20:00,89.8,59.3,29.89,NNE,24,7.0,7.0,36,0.00,,,0.00,Wunderground v.1.15,2013-06-29 18:20:00,
2013-06-29 13:25:00,89.5,59.0,29.89,NNW,340,8.0,9.0,36,0.00,,,0.00,Wunderground v.1.15,2013-06-29 18:25:00,
2013-06-29 13:30:00,89.3,59.6,29.88,NE,38,9.0,9.0,37,0.00,,,0.00,Wunderground v.1.15,2013-06-29 18:30:00,
2013-06-29 13:35:00,89.4,60.5,29.88,NNW,344,8.0,9.0,38,0.00,,,0.00,Wunderground v.1.15,2013-06-29 18:35:00,
2013-06-29 13:40:00,89.9,60.1,29.88,NNW,341,7.0,7.0,37,0.00,,,0.00,Wunderground v.1.15,2013-06-29 18:40:00,
2013-06-29 13:45:00,89.6,59.9,29.88,NNE,19,7.0,7.0,37,0.00,,,0.00,Wunderground v.1.15,2013-06-29 18:45:00,
2013-06-29 13:50:00,89.9,60.1,29.87,NNE,22,5.0,6.0,37,0.00,,,0.00,Wunderground v.1.15,2013-06-29 18:50:00,
2013-06-29 14:00:00,90.8,60.2,29.87,NE,35,5.0,8.0,36,0.00,,,0.00,Wunderground v.1.15,2013-06-29 19:00:00,
2013-06-29 14:05:00,90.7,60.8,29.87,NNW,348,6.0,8.0,37,0.00,,,0.00,Wunderground v.1.15,2013-06-29 19:05:00,
2013-06-29 14:15:00,90.6,60.8,29.86,NE,53,8.0,10.0,37,0.00,,,0.00,Wunderground v.1.15,2013-06-29 19:15:00,
2013-06-29 14:20:00,90.1,58.8,29.86,NNE,28,8.0,8.0,35,0.00,,,0.00,Wunderground v.1.15,2013-06-29 19:20:00,
2013-06-29 14:25:00,90.0,60.2,29.86,North,5,8.0,8.0,37,0.00,,,0.00,Wunderground v.1.15,2013-06-29 19:25:00,
2013-06-29 14:30:00,90.5,60.7,29.86,NNE,17,7.0,15.0,37,0.00,,,0.00,Wunderground v.1.15,2013-06-29 19:30:00,
2013-06-29 14:40:00,90.6,61.5,29.86,NNE,26,8.0,8.0,38,0.00,,,0.00,Wunderground v.1.15,2013-06-29 19:40:00,
2013-06-29 14:45:00,90.8,60.9,29.86,North,355,7.0,8.0,37,0.00,,,0.00,Wunderground v.1.15,2013-06-29 19:45:00,
2013-06-29 14:50:00,90.6,60.8,29.86,NNW,345,8.0,11.0,37,0.00,,,0.00,Wunderground v.1.15,2013-06-29 19:50:00,
2013-06-29 14:55:00,90.7,60.1,29.85,NNE,17,9.0,11.0,36,0.00,,,0.00,Wunderground v.1.15,2013-06-29 19:55:00,
2013-06-29 15:05:00,91.2,61.3,29.85,NNE,24,8.0,10.0,37,0.00,,,0.00,Wunderground v.1.15,2013-06-29 20:05:00,
2013-06-29 15:10:00,91.6,60.1,29.85,North,360,7.0,10.0,35,0.00,,,0.00,Wunderground v.1.15,2013-06-29 20:10:00,
2013-06-29 15:20:00,91.2,60.5,29.85,NNE,16,8.0,8.0,36,0.00,,,0.00,Wunderground v.1.15,2013-06-29 20:20:00,
2013-06-29 15:30:00,91.5,60.8,29.84,NNW,335,7.0,10.0,36,0.00,,,0.00,Wunderground v.1.15,2013-06-29 20:30:00,
2013-06-29 15:35:00,91.3,59.8,29.84,North,5,8.0,10.0,35,0.00,,,0.00,Wunderground v.1.15,2013-06-29 20:35:00,
2013-06-29 15:40:00,91.3,59.8,29.84,NNE,30,9.0,9.0,35,0.00,,,0.00,Wunderground v.1.15,2013-06-29 20:40:00,
2013-06-29 15:45:00,91.5,60.0,29.84,North,355,8.0,9.0,35,0.00,,,0.00,Wunderground v.1.15,2013-06-29 20:45:00,
2013-06-29 15:50:00,91.2,59.7,29.84,North,9,6.0,11.0,35,0.00,,,0.00,Wunderground v.1.15,2013-06-29 20:50:00,
2013-06-29 16:00:00,91.5,60.8,29.83,North,355,9.0,9.0,36,0.00,,,0.00,Wunderground v.1.15,2013-06-29 21:00:00,
2013-06-29 16:05:00,91.9,61.1,29.83,North,5,7.0,9.0,36,0.00,,,0.00,Wunderground v.1.15,2013-06-29 21:05:00,
2013-06-29 16:10:00,91.7,61.0,29.83,NE,40,5.0,9.0,36,0.00,,,0.00,Wunderground v.1.15,2013-06-29 21:10:00,
2013-06-29 16:15:00,91.5,61.6,29.83,North,355,7.0,9.0,37,0.00,,,0.00,Wunderground v.1.15,2013-06-29 21:15:00,
2013-06-29 16:25:00,91.3,60.6,29.83,NE,55,8.0,8.0,36,0.00,,,0.00,Wunderground v.1.15,2013-06-29 21:25:00,
2013-06-29 16:35:00,91.6,62.4,29.82,NNE,24,7.0,9.0,38,0.00,,,0.00,Wunderground v.1.15,2013-06-29 21:35:00,
2013-06-29 16:40:00,91.7,61.7,29.82,NNW,348,6.0,8.0,37,0.00,,,0.00,Wunderground v.1.15,2013-06-29 21:40:00,
2013-06-29 16:45:00,91.4,61.5,29.82,North,5,8.0,8.0,37,0.00,,,0.00,Wunderground v.1.15,2013-06-29 21:45:00,
2013-06-29 16:50:00,91.3,61.4,29.82,NNE,17,8.0,8.0,37,0.00,,,0.00,Wunderground v.1.15,2013-06-29 21:50:00,
2013-06-29 17:00:00,91.1,61.2,29.82,NNE,14,8.0,8.0,37,0.00,,,0.00,Wunderground v.1.15,2013-06-29 22:00:00,
2013-06-29 17:05:00,91.3,60.6,29.81,NNE,13,7.0,10.0,36,0.00,,,0.00,Wunderground v.1.15,2013-06-29 22:05:00,
2013-06-29 17:15:00,90.6,61.5,29.81,NE,35,7.0,7.0,38,0.00,,,0.00,Wunderground v.1.15,2013-06-29 22:15:00,
2013-06-29 17:20:00,90.7,60.8,29.81,NNE,30,7.0,7.0,37,0.00,,,0.00,Wunderground v.1.15,2013-06-29 22:20:00,
2013-06-29 17:25:00,90.7,61.6,29.81,NNE,17,7.0,7.0,38,0.00,,,0.00,Wunderground v.1.15,2013-06-29 22:25:00,
2013-06-29 17:35:00,90.7,60.8,29.81,North,5,7.0,7.0,37,0.00,,,0.00,Wunderground v.1.15,2013-06-29 22:35:00,
2013-06-29 17:40:00,90.5,61.4,29.81,NNE,20,7.0,8.0,38,0.00,,,0.00,Wunderground v.1.15,2013-06-29 22:40:00,
2013-06-29 17:45:00,90.5,61.4,29.81,North,355,6.0,8.0,38,0.00,,,0.00,Wunderground v.1.15,2013-06-29 22:45:00,
2013-06-29 17:50:00,90.3,61.2,29.81,North,5,6.0,6.0,38,0.00,,,0.00,Wunderground v.1.15,2013-06-29 22:50:00,
2013-06-29 17:55:00,90.4,61.3,29.81,North,355,7.0,7.0,38,0.00,,,0.00,Wunderground v.1.15,2013-06-29 22:55:00,
2013-06-29 18:00:00,90.5,61.4,29.81,North,9,8.0,8.0,38,0.00,,,0.00,Wunderground v.1.15,2013-06-29 23:00:00,
2013-06-29 18:05:00,90.2,61.2,29.80,NNE,20,9.0,9.0,38,0.00,,,0.00,Wunderground v.1.15,2013-06-29 23:05:00,
2013-06-29 18:10:00,90.1,61.1,29.80,North,355,9.0,9.0,38,0.00,,,0.00,Wunderground v.1.15,2013-06-29 23:10:00,
2013-06-29 18:15:00,90.2,61.2,29.80,North,360,7.0,9.0,38,0.00,,,0.00,Wunderground v.1.15,2013-06-29 23:15:00,
2013-06-29 18:25:00,89.9,61.6,29.80,NNW,341,8.0,10.0,39,0.00,,,0.00,Wunderground v.1.15,2013-06-29 23:25:00,
2013-06-29 18:30:00,90.0,61.7,29.80,NNE,22,7.0,10.0,39,0.00,,,0.00,Wunderground v.1.15,2013-06-29 23:30:00,
2013-06-29 18:35:00,90.0,61.7,29.80,NE,34,7.0,11.0,39,0.00,,,0.00,Wunderground v.1.15,2013-06-29 23:35:00,
2013-06-29 18:45:00,89.9,62.3,29.80,NNE,21,6.0,7.0,40,0.00,,,0.00,Wunderground v.1.15,2013-06-29 23:45:00,
2013-06-29 18:55:00,90.0,62.4,29.80,North,5,5.0,8.0,40,0.00,,,0.00,Wunderground v.1.15,2013-06-29 23:55:00,
2013-06-29 19:00:00,89.8,62.3,29.80,North,355,5.0,9.0,40,0.00,,,0.00,Wunderground v.1.15,2013-06-30 00:00:00,
2013-06-29 19:05:00,89.8,63.0,29.80,NNE,30,6.0,9.0,41,0.00,,,0.00,Wunderground v.1.15,2013-06-30 00:05:00,
2013-06-29 19:10:00,89.6,62.8,29.80,NNE,14,6.0,7.0,41,0.00,,,0.00,Wunderground v.1.15,2013-06-30 00:10:00,
2013-06-29 19:15:00,89.4,62.6,29.81,North,351,6.0,7.0,41,0.00,,,0.00,Wunderground v.1.15,2013-06-30 00:15:00,
2013-06-29 19:20:00,89.4,62.6,29.80,NNE,30,5.0,5.0,41,0.00,,,0.00,Wunderground v.1.15,2013-06-30 00:20:00,
2013-06-29 19:30:00,89.5,63.4,29.80,NNE,32,4.0,4.0,42,0.00,,,0.00,Wunderground v.1.15,2013-06-30 00:30:00,
2013-06-29 19:35:00,89.4,62.6,29.80,NNE,12,4.0,4.0,41,0.00,,,0.00,Wunderground v.1.15,2013-06-30 00:35:00,
2013-06-29 19:40:00,89.3,63.2,29.81,NNE,22,4.0,4.0,42,0.00,,,0.00,Wunderground v.1.15,2013-06-30 00:40:00,
2013-06-29 19:45:00,89.3,63.2,29.81,NNE,17,4.0,4.0,42,0.00,,,0.00,Wunderground v.1.15,2013-06-30 00:45:00,
2013-06-29 19:55:00,89.0,63.6,29.81,North,11,4.0,5.0,43,0.00,,,0.00,Wunderground v.1.15,2013-06-30 00:55:00,
2013-06-29 20:00:00,88.7,63.3,29.81,North,355,4.0,4.0,43,0.00,,,0.00,Wunderground v.1.15,2013-06-30 01:00:00,
2013-06-29 20:05:00,88.6,63.2,29.81,NNE,23,3.0,4.0,43,0.00,,,0.00,Wunderground v.1.15,2013-06-30 01:05:00,
2013-06-29 20:10:00,88.4,63.1,29.81,NNE,15,3.0,4.0,43,0.00,,,0.00,Wunderground v.1.15,2013-06-30 01:10:00,
2013-06-29 20:15:00,88.3,63.6,29.81,NNE,30,3.0,4.0,44,0.00,,,0.00,Wunderground v.1.15,2013-06-30 01:15:00,
2013-06-29 20:20:00,88.0,63.4,29.81,NNE,14,3.0,3.0,44,0.00,,,0.00,Wunderground v.1.15,2013-06-30 01:20:00,
2013-06-29 20:25:00,87.7,63.1,29.80,North,360,3.0,3.0,44,0.00,,,0.00,Wunderground v.1.15,2013-06-30 01:25:00,
2013-06-29 20:30:00,87.7,63.7,29.81,North,360,2.0,2.0,45,0.00,,,0.00,Wunderground v.1.15,2013-06-30 01:30:00,
2013-06-29 20:35:00,87.6,63.6,29.81,North,360,1.0,2.0,45,0.00,,,0.00,Wunderground v.1.15,2013-06-30 01:35:00,
2013-06-29 20:40:00,87.5,62.9,29.80,North,360,1.0,1.0,44,0.00,,,0.00,Wunderground v.1.15,2013-06-30 01:40:00,
2013-06-29 20:50:00,87.4,63.5,29.80,North,360,0.0,0.0,45,0.00,,,0.00,Wunderground v.1.15,2013-06-30 01:50:00,
2013-06-29 20:55:00,87.3,62.7,29.81,North,360,0.0,2.0,44,0.00,,,0.00,Wunderground v.1.15,2013-06-30 01:55:00,
2013-06-29 21:00:00,87.1,63.2,29.80,North,360,1.0,1.0,45,0.00,,,0.00,Wunderground v.1.15,2013-06-30 02:00:00,
2013-06-29 21:05:00,87.0,63.1,29.80,North,360,2.0,2.0,45,0.00,,,0.00,Wunderground v.1.15,2013-06-30 02:05:00,
2013-06-29 21:10:00,86.8,62.9,29.80,North,360,1.0,1.0,45,0.00,,,0.00,Wunderground v.1.15,2013-06-30 02:10:00,
2013-06-29 21:15:00,86.7,62.8,29.80,North,360,1.0,1.0,45,0.00,,,0.00,Wunderground v.1.15,2013-06-30 02:15:00,
2013-06-29 21:20:00,86.7,62.8,29.80,North,360,1.0,2.0,45,0.00,,,0.00,Wunderground v.1.15,2013-06-30 02:20:00,
2013-06-29 21:30:00,86.5,62.6,29.80,North,360,1.0,4.0,45,0.00,,,0.00,Wunderground v.1.15,2013-06-30 02:30:00,
2013-06-29 21:35:00,86.4,63.2,29.80,North,360,1.0,4.0,46,0.00,,,0.00,Wunderground v.1.15,2013-06-30 02:35:00,
2013-06-29 21:40:00,86.3,63.1,29.80,North,360,1.0,1.0,46,0.00,,,0.00,Wunderground v.1.15,2013-06-30 02:40:00,
2013-06-29 21:45:00,86.3,63.7,29.81,North,360,1.0,1.0,47,0.00,,,0.00,Wunderground v.1.15,2013-06-30 02:45:00,
2013-06-29 21:55:00,85.9,63.9,29.81,North,360,0.0,0.0,48,0.00,,,0.00,Wunderground v.1.15,2013-06-30 02:55:00,
2013-06-29 22:00:00,85.7,64.3,29.81,North,360,0.0,0.0,49,0.00,,,0.00,Wunderground v.1.15,2013-06-30 03:00:00,
2013-06-29 22:05:00,85.4,63.5,29.81,North,360,0.0,0.0,48,0.00,,,0.00,Wunderground v.1.15,2013-06-30 03:05:00,
2013-06-29 22:15:00,84.9,64.2,29.81,North,360,0.0,0.0,50,0.00,,,0.00,Wunderground v.1.15,2013-06-30 03:15:00,
2013-06-29 22:20:00,84.7,64.0,29.82,North,360,0.0,0.0,50,0.00,,,0.00,Wunderground v.1.15,2013-06-30 03:20:00,
2013-06-29 22:25:00,84.5,64.4,29.82,North,360,0.0,0.0,51,0.00,,,0.00,Wunderground v.1.15,2013-06-30 03:25:00,
2013-06-29 22:30:00,84.3,64.2,29.81,North,360,0.0,0.0,51,0.00,,,0.00,Wunderground v.1.15,2013-06-30 03:30:00,
2013-06-29 22:40:00,83.8,64.3,29.82,North,360,0.0,0.0,52,0.00,,,0.00,Wunderground v.1.15,2013-06-30 03:40:00,
2013-06-29 22:50:00,83.5,64.6,29.82,North,360,0.0,0.0,53,0.00,,,0.00,Wunderground v.1.15,2013-06-30 03:50:00,
2013-06-29 22:55:00,83.3,64.4,29.82,North,360,0.0,0.0,53,0.00,,,0.00,Wunderground v.1.15,2013-06-30 03:55:00,
2013-06-29 23:00:00,83.1,64.7,29.82,North,360,0.0,0.0,54,0.00,,,0.00,Wunderground v.1.15,2013-06-30 04:00:00,
2013-06-29 23:05:00,82.9,65.1,29.82,North,360,0.0,0.0,55,0.00,,,0.00,Wunderground v.1.15,2013-06-30 04:05:00,
2013-06-29 23:10:00,82.8,65.0,29.82,North,360,0.0,0.0,55,0.00,,,0.00,Wunderground v.1.15,2013-06-30 04:10:00,
2013-06-29 23:15:00,82.6,64.8,29.82,North,360,0.0,0.0,55,0.00,,,0.00,Wunderground v.1.15,2013-06-30 04:15:00,
2013-06-29 23:25:00,82.2,64.4,29.82,North,360,0.0,0.0,55,0.00,,,0.00,Wunderground v.1.15,2013-06-30 04:25:00,
2013-06-29 23:30:00,82.1,64.3,29.82,North,360,0.0,1.0,55,0.00,,,0.00,Wunderground v.1.15,2013-06-30 04:30:00,
2013-06-29 23:35:00,82.1,63.8,29.82,North,360,0.0,1.0,54,0.00,,,0.00,Wunderground v.1.15,2013-06-30 04:35:00,
2013-06-29 23:40:00,82.1,63.8,29.82,North,360,0.0,0.0,54,0.00,,,0.00,Wunderground v.1.15,2013-06-30 04:40:00,
2013-06-29 23:50:00,82.2,63.4,29.82,North,360,0.0,0.0,53,0.00,,,0.00,Wunderground v.1.15,2013-06-30 04:50:00,
2013-06-29 23:55:00,82.3,63.5,29.83,North,360,1.0,1.0,53,0.00,,,0.00,Wunderground v.1.15,2013-06-30 04:55:00,